Madison, SD

8:26 AM CDT on July 25, 2017 (GMT -0500)
Madison Municipal

Weather History for KMDS - March, 2014

Change the Weather History Date:

Tuesday, March 18, 2014

  Actual Average Record
Temperature  
Mean Temperature 32 °F -  
Max Temperature 37 °F 40 °F 82 °F (2012)
Min Temperature 28 °F 24 °F 8 °F (2013)
Degree Days  
Heating Degree Days 32    
Moisture  
Dew Point 30 °F    
Average Humidity 100    
Maximum Humidity 100    
Minimum Humidity 87    
Precipitation  
Precipitation 1.89 in - - ()
Sea Level Pressure  
Sea Level Pressure 29.62 in    
Wind  
Wind Speed 19 mph (NE)    
Max Wind Speed 29 mph    
Max Gust Speed 37 mph    
Visibility 8 miles    
Events Rain , Snow    
Averages and records for this station are not official NWS values.
T = Trace of Precipitation, MM = Missing Value Source: NWS Daily Summary

Daily Weather History Graph

Daily Weather History Graph

Search for Another Location

Airport or City:

Trip Planner

Search our weather history database for the weather conditions in past years. The results will help you decide how hot, cold, wet, or windy it might be!

Date:

Astronomy

Mar. 18, 2014 Rise Set
Actual Time 7:35 AM CDT 7:38 PM CDT
Civil Twilight 7:06 AM CDT 8:07 PM CDT
Nautical Twilight 6:32 AM CDT 8:40 PM CDT
Astronomical Twilight 5:58 AM CDT 9:15 PM CDT
Moon 10:02 PM CDT (3/18) 8:20 AM CDT (3/18)
Length of Visible Light 13h 00m
Length of Day
12h 03m
Waning Gibbous, 96% of the Moon is Illuminated
Mar 18
Waning Gibbous
Mar 23
Last Quarter
Mar 30
New
Apr 7
First Quarter
Apr 15
Full

Hourly Weather History & Observations

Time (CDT) Temp. Windchill Dew Point Humidity Pressure Visibility Wind Dir Wind Speed Gust Speed Precip Events Conditions
12:05 AM 37.4 °F 30.8 °F 33.8 °F 87% 29.37 in 10.0 mi East 9.2 mph - N/A   Mostly Cloudy
12:25 AM 35.6 °F 25.5 °F 33.8 °F 93% 29.36 in 10.0 mi East 17.3 mph - N/A   Scattered Clouds
12:45 AM 35.6 °F 25.5 °F 35.6 °F 100% 29.36 in 10.0 mi East 17.3 mph - N/A   Partly Cloudy
1:05 AM 35.6 °F 25.9 °F 35.6 °F 100% 29.37 in 10.0 mi ENE 16.1 mph - N/A   Clear
1:25 AM 33.8 °F 23.9 °F 33.8 °F 100% 29.37 in 10.0 mi ENE 15.0 mph - N/A   Clear
1:45 AM 33.8 °F 23.2 °F 33.8 °F 100% 29.38 in 10.0 mi ENE 17.3 mph 23.0 mph N/A   Clear
2:05 AM 33.8 °F 22.8 °F 33.8 °F 100% 29.39 in 10.0 mi East 18.4 mph - N/A   Scattered Clouds
2:25 AM 33.8 °F 23.2 °F 33.8 °F 100% 29.40 in 10.0 mi ENE 17.3 mph 25.3 mph N/A   Overcast
2:45 AM 32.0 °F 20.5 °F 32.0 °F 100% 29.40 in 10.0 mi ENE 18.4 mph - N/A   Overcast
3:05 AM 32.0 °F 20.5 °F 32.0 °F 100% 29.41 in 10.0 mi ENE 18.4 mph - N/A   Overcast
3:25 AM 32.0 °F 20.5 °F 32.0 °F 100% 29.42 in 10.0 mi ENE 18.4 mph 25.3 mph N/A   Overcast
3:45 AM 32.0 °F 19.8 °F 32.0 °F 100% 29.43 in 10.0 mi ENE 20.7 mph 26.5 mph N/A   Overcast
4:05 AM 32.0 °F 19.8 °F 32.0 °F 100% 29.43 in 10.0 mi ENE 20.7 mph 27.6 mph N/A Rain Light Rain
4:25 AM 32.0 °F 20.1 °F 32.0 °F 100% 29.44 in 10.0 mi ENE 19.6 mph 29.9 mph N/A   Overcast
4:45 AM 32.0 °F 20.1 °F 32.0 °F 100% 29.45 in 10.0 mi ENE 19.6 mph 25.3 mph N/A   Overcast
5:05 AM 32.0 °F 20.5 °F 32.0 °F 100% 29.45 in 10.0 mi NE 18.4 mph 23.0 mph N/A   Overcast
5:25 AM 32.0 °F 18.9 °F 32.0 °F 100% 29.44 in 10.0 mi ENE 24.2 mph - N/A   Overcast
5:45 AM 32.0 °F 19.8 °F 32.0 °F 100% 29.45 in 10.0 mi ENE 20.7 mph 28.8 mph N/A   Overcast
6:05 AM 32.0 °F 20.1 °F 32.0 °F 100% 29.49 in 10.0 mi ENE 19.6 mph 24.2 mph N/A   Overcast
6:25 AM 32.0 °F 20.5 °F 32.0 °F 100% 29.50 in 10.0 mi ENE 18.4 mph 24.2 mph N/A Rain Light Rain
6:45 AM 32.0 °F 20.8 °F 32.0 °F 100% 29.51 in 10.0 mi ENE 17.3 mph 24.2 mph N/A Rain Light Rain
7:05 AM 32.0 °F 20.1 °F 32.0 °F 100% 29.52 in 10.0 mi NE 19.6 mph 25.3 mph N/A Rain Light Rain
7:25 AM 32.0 °F 21.2 °F 32.0 °F 100% 29.53 in 10.0 mi NE 16.1 mph 23.0 mph N/A Rain Light Rain
7:45 AM 32.0 °F 19.8 °F 32.0 °F 100% 29.54 in 10.0 mi NE 20.7 mph 32.2 mph N/A Rain Light Rain
8:05 AM 30.2 °F 17.1 °F 30.2 °F 100% 29.54 in 10.0 mi NE 21.9 mph 29.9 mph N/A Rain Light Freezing Rain
8:25 AM 30.2 °F 17.1 °F 30.2 °F 100% 29.55 in 10.0 mi NE 21.9 mph 26.5 mph N/A   Mostly Cloudy
8:45 AM 30.2 °F 17.8 °F 30.2 °F 100% 29.57 in 10.0 mi NE 19.6 mph 28.8 mph N/A   Overcast
9:05 AM 30.2 °F 17.1 °F 30.2 °F 100% 29.58 in 10.0 mi NE 21.9 mph 29.9 mph N/A   Overcast
9:25 AM 30.2 °F 16.5 °F 30.2 °F 100% 29.59 in 10.0 mi NE 24.2 mph 29.9 mph N/A   Overcast
9:45 AM 28.4 °F 14.7 °F 28.4 °F 100% 29.60 in 10.0 mi NE 21.9 mph 29.9 mph N/A   Overcast
10:05 AM 28.4 °F 14.7 °F 28.4 °F 100% 29.60 in 10.0 mi NE 21.9 mph 27.6 mph N/A   Overcast
10:25 AM 28.4 °F 13.5 °F 28.4 °F 100% 29.60 in 10.0 mi NNE 26.5 mph 35.7 mph 0.01 in   Overcast
10:45 AM 28.4 °F 13.8 °F 28.4 °F 100% 29.61 in 5.0 mi NNE 25.3 mph 31.1 mph 0.02 in   Overcast
11:05 AM 28.4 °F 14.7 °F 28.4 °F 100% 29.61 in 10.0 mi NNE 21.9 mph 31.1 mph N/A   Overcast
11:25 AM 28.4 °F 14.4 °F 28.4 °F 100% 29.63 in 5.0 mi NNE 23.0 mph 28.8 mph 0.02 in Snow Light Snow
11:45 AM 28.4 °F 15.1 °F 28.4 °F 100% 29.65 in 1.8 mi NE 20.7 mph 29.9 mph 0.08 in   Mostly Cloudy
12:05 PM 28.4 °F 15.1 °F 28.4 °F 100% 29.67 in 2.5 mi NNE 20.7 mph 28.8 mph 0.01 in   Overcast
12:25 PM 28.4 °F 14.7 °F 28.4 °F 100% 29.68 in 1.0 mi NNE 21.9 mph 25.3 mph 0.11 in   Overcast
12:45 PM 28.4 °F 15.1 °F 28.4 °F 100% 29.68 in 1.2 mi NNE 20.7 mph - 0.25 in   Overcast
1:05 PM 28.4 °F 14.4 °F 28.4 °F 100% 29.67 in 3.0 mi NNE 23.0 mph 27.6 mph N/A   Mostly Cloudy
1:25 PM 28.4 °F 13.5 °F 28.4 °F 100% 29.66 in 10.0 mi NNE 26.5 mph 34.5 mph 0.02 in Rain Light Freezing Rain
1:45 PM 28.4 °F 13.0 °F 28.4 °F 100% 29.65 in 10.0 mi NNE 28.8 mph 36.8 mph 0.03 in Rain Light Freezing Rain
2:05 PM 28.4 °F 13.0 °F 28.4 °F 100% 29.65 in 4.0 mi NNE 28.8 mph 35.7 mph N/A   Mostly Cloudy
2:25 PM 28.4 °F 13.5 °F 28.4 °F 100% 29.66 in 10.0 mi NNE 26.5 mph 35.7 mph 0.01 in Rain Light Freezing Rain
2:45 PM 28.4 °F 13.3 °F 28.4 °F 100% 29.66 in 2.5 mi NNE 27.6 mph 33.4 mph 0.02 in   Scattered Clouds
3:05 PM 28.4 °F 13.8 °F 28.4 °F 100% 29.67 in 1.0 mi NNE 25.3 mph 31.1 mph 0.01 in   Mostly Cloudy
3:25 PM 28.4 °F 14.1 °F 28.4 °F 100% 29.68 in 0.5 mi NNE 24.2 mph 32.2 mph 0.12 in   Mostly Cloudy
3:45 PM 28.4 °F 15.1 °F 28.4 °F 100% 29.69 in 0.5 mi NNE 20.7 mph 27.6 mph 0.35 in Snow Snow
4:05 PM 28.4 °F 15.4 °F 28.4 °F 100% 29.70 in 0.5 mi NNE 19.6 mph 25.3 mph 0.03 in   Mostly Cloudy
4:25 PM 28.4 °F 16.2 °F 28.4 °F 100% 29.72 in 0.2 mi NNE 17.3 mph - 0.22 in   Mostly Cloudy
4:45 PM 28.4 °F 17.0 °F 28.4 °F 100% 29.73 in 0.5 mi North 15.0 mph 23.0 mph 0.46 in   Mostly Cloudy
5:05 PM 28.4 °F 15.4 °F 28.4 °F 100% 29.74 in 0.5 mi North 19.6 mph 26.5 mph 0.04 in   Unknown
5:25 PM 28.4 °F 15.1 °F 28.4 °F 100% 29.75 in 0.5 mi North 20.7 mph 25.3 mph 0.29 in   Unknown
5:45 PM 28.4 °F 14.7 °F 28.4 °F 100% 29.76 in 0.2 mi NNE 21.9 mph 26.5 mph 0.61 in   Mostly Cloudy
6:05 PM 28.4 °F 15.4 °F 28.4 °F 100% 29.77 in 1.0 mi NNE 19.6 mph 25.3 mph 0.02 in Snow Light Snow
6:25 PM 30.2 °F 17.1 °F 30.2 °F 100% 29.77 in 7.0 mi NNE 21.9 mph - 0.06 in   Mostly Cloudy
6:45 PM 30.2 °F 16.5 °F 30.2 °F 100% 29.78 in 8.0 mi NNE 24.2 mph 31.1 mph 0.07 in Rain Light Freezing Rain
7:05 PM 30.2 °F 16.8 °F 30.2 °F 100% 29.80 in 8.0 mi North 23.0 mph 29.9 mph N/A   Overcast
7:25 PM 30.2 °F 16.5 °F 30.2 °F 100% 29.81 in 7.0 mi North 24.2 mph 31.1 mph N/A   Overcast
7:45 PM 30.2 °F 16.8 °F 30.2 °F 100% 29.82 in 7.0 mi North 23.0 mph 31.1 mph N/A   Overcast
8:05 PM 30.2 °F 17.4 °F 30.2 °F 100% 29.82 in 8.0 mi North 20.7 mph 29.9 mph N/A   Overcast
8:25 PM 30.2 °F 17.4 °F 30.2 °F 100% 29.83 in 10.0 mi North 20.7 mph 27.6 mph N/A   Overcast
8:45 PM 30.2 °F 17.1 °F 30.2 °F 100% 29.84 in 10.0 mi North 21.9 mph 29.9 mph N/A   Overcast
9:05 PM 30.2 °F 18.1 °F 30.2 °F 100% 29.84 in 10.0 mi North 18.4 mph 29.9 mph N/A   Overcast
9:25 PM 30.2 °F 17.4 °F 30.2 °F 100% 29.85 in 10.0 mi North 20.7 mph 25.3 mph N/A   Overcast
9:45 PM 30.2 °F 17.4 °F 30.2 °F 100% 29.86 in 10.0 mi North 20.7 mph - N/A   Overcast
10:05 PM 30.2 °F 18.5 °F 30.2 °F 100% 29.86 in 10.0 mi North 17.3 mph - N/A   Overcast
10:25 PM 30.2 °F 18.1 °F 30.2 °F 100% 29.87 in 10.0 mi NNW 18.4 mph 24.2 mph N/A   Overcast
10:45 PM 30.2 °F 18.1 °F 30.2 °F 100% 29.87 in 10.0 mi North 18.4 mph - N/A   Overcast
11:05 PM 30.2 °F 18.1 °F 30.2 °F 100% 29.88 in 10.0 mi North 18.4 mph 25.3 mph N/A   Overcast
11:25 PM 30.2 °F 18.5 °F 30.2 °F 100% 29.88 in 10.0 mi North 17.3 mph - N/A   Overcast
11:45 PM 30.2 °F 18.1 °F 30.2 °F 100% 29.88 in 10.0 mi North 18.4 mph 26.5 mph N/A   Overcast